MD5521 Weather Reports


time (UTC)temp
F
wind
direction
speed
knots
gust
knots
rain 1hr
in
rain 24hr
in
rain mn
in
humidity
%
barometer
mb
20260509001555 57 323 3.5 7.0 0.00 0.00 0.00 70 1008.8
20260509000054 59 263 5.2 9.6 0.00 0.00 0.00 66 1008.9
20260508234541 60 227 6.1 8.7 0.00 0.00 0.00 61 1008.9
20260508233030 61 216 3.5 7.0 0.00 0.00 0.00 59 1008.5
20260508231533 62 232 4.3 15.6 0.00 0.00 0.00 56 1008.4
20260508230043 60 175 0.9 2.6 0.00 0.00 0.00 61 1008.4
20260508224523 60 154 0.9 2.6 0.00 0.00 0.00 60 1008.4
20260508223016 61 194 0.0 0.0 0.00 0.00 0.00 59 1008.3
20260508221513 61 219 0.0 3.5 0.00 0.00 0.00 59 1008.4
20260508220107 62 205 0.9 2.6 0.00 0.00 0.00 59 1008.4
20260508214546 62 240 1.7 4.3 0.00 0.00 0.00 56 1008.4
20260508213047 63 234 3.5 7.0 0.00 0.00 0.00 52 1008.4
20260508211553 63 255 5.2 7.0 0.00 0.00 0.00 51 1008.5
20260508210054 63 221 3.5 6.1 0.00 0.00 0.00 54 1008.7
20260508204532 63 234 5.2 12.2 0.00 0.00 0.00 50 1008.9
20260508203038 63 259 5.2 12.2 0.00 0.00 0.00 48 1009.0
20260508201539 63 242 7.8 12.2 0.00 0.00 0.00 49 1009.2
20260508200100 64 232 8.7 13.9 0.00 0.00 0.00 50 1009.3
20260508194531 64 221 7.8 13.0 0.00 0.00 0.00 51 1009.4
20260508193024 65 225 7.8 13.9 0.00 0.00 0.00 47 1009.4
20260508191528 64 205 10.4 16.5 0.00 0.00 0.00 49 1009.7
20260508190012 64 221 9.6 19.1 0.00 0.00 0.00 48 1009.9
20260508184509 64 219 7.8 17.4 0.00 0.00 0.00 52 1010.2
20260508183020 64 201 9.6 14.8 0.00 0.00 0.00 47 1010.2
20260508181514 63 190 9.6 13.9 0.00 0.00 0.00 50 1010.3
20260508180124 63 213 8.7 14.8 0.00 0.00 0.00 51 1010.7
20260508174503 64 225 6.1 15.6 0.00 0.00 0.00 52 1010.8
20260508173007 64 254 8.7 15.6 0.00 0.00 0.00 51 1010.9
20260508171506 64 213 7.8 10.4 0.00 0.00 0.00 50 1011.2
20260508170114 63 190 7.8 14.8 0.00 0.00 0.00 51 1011.6
20260508164600 63 204 8.7 15.6 0.00 0.00 0.00 51 1012.0
20260508163109 62 229 6.1 11.3 0.00 0.00 0.00 54 1012.1
20260508161502 61 220 5.2 13.0 0.00 0.00 0.00 54 1012.2
20260508160109 61 223 7.8 13.9 0.00 0.00 0.00 56 1012.4
20260508154619 61 216 9.6 14.8 0.00 0.00 0.00 53 1012.5
20260508153053 60 252 7.0 13.9 0.00 0.00 0.00 54 1012.6
20260508151548 60 237 7.0 13.0 0.00 0.00 0.00 54 1012.7
20260508150047 59 269 4.3 12.2 0.00 0.00 0.00 57 1012.7
20260508144515 58 248 7.0 17.4 0.00 0.00 0.00 56 1012.9
20260508143019 58 213 7.0 13.0 0.00 0.00 0.00 57 1013.0
20260508141529 58 284 7.0 13.0 0.00 0.00 0.00 54 1013.0
20260508140008 56 283 4.3 7.0 0.00 0.00 0.00 59 1013.2
20260508134513 55 240 4.3 7.8 0.00 0.00 0.00 59 1013.4
20260508133019 54 219 2.6 7.0 0.00 0.00 0.00 62 1013.4
20260508131514 52 285 2.6 5.2 0.00 0.00 0.00 63 1013.5
20260508130115 51 218 2.6 5.2 0.00 0.00 0.00 65 1013.2
20260508124605 50 233 2.6 5.2 0.00 0.00 0.00 65 1013.5
20260508123104 49 232 2.6 7.8 0.00 0.00 0.00 67 1013.3
20260508121559 49 211 3.5 5.2 0.00 0.00 0.00 67 1013.3
20260508120100 48 217 2.6 5.2 0.00 0.00 0.00 68 1013.2
20260508114545 48 217 2.6 7.0 0.00 0.00 0.00 68 1013.1
20260508113049 48 181 4.3 7.8 0.00 0.00 0.00 66 1012.8
20260508111552 48 217 3.5 9.6 0.00 0.00 0.00 65 1012.6
20260508110059 0 0.0 0.0 0.00 0.00 0.00 1012.6
20260508104534 0 0.0 0.0 0.00 0.00 0.00 1012.5
20260508103038 0 0.0 0.0 0.00 0.00 0.00 1012.5
20260508101534 0 0.0 0.0 0.00 0.00 0.00 1012.4
20260508100004 0 0.0 0.0 0.00 0.00 0.00 1012.5
20260508094509 0 0.0 0.0 0.00 0.00 0.00 1012.5
20260508093016 0 0.0 0.0 0.00 0.00 0.00 1012.6
20260508091512 0 0.0 0.0 0.00 0.00 0.00 1012.6
20260508090119 0 0.0 0.0 0.00 0.00 0.00 1012.6
20260508084503 0 0.0 0.0 0.00 0.00 0.00 1012.5
20260508083102 0 0.0 0.0 0.00 0.00 0.00 1012.7
20260508081608 0 194 3.5 7.8 0.00 0.00 0.00 1012.7
20260508080059 47 202 4.3 7.0 0.00 0.00 0.00 64 1012.7
20260508074534 47 185 2.6 7.0 0.00 0.00 0.00 63 1012.6
20260508073035 48 196 4.3 7.8 0.00 0.00 0.00 62 1012.7
20260508071529 47 210 1.7 4.3 0.00 0.00 0.00 64 1012.9
20260508070012 48 245 0.9 4.3 0.00 0.00 0.00 64 1013.1
20260508064510 49 232 3.5 7.0 0.00 0.00 0.00 62 1013.1
20260508063009 49 193 5.2 7.0 0.00 0.00 0.00 60 1013.1
20260508061509 49 223 4.3 7.8 0.00 0.00 0.00 59 1013.0
20260508060116 50 216 6.1 8.7 0.00 0.00 0.00 57 1013.0
20260508054604 50 217 4.3 6.1 0.00 0.00 0.00 59 1013.2
20260508053055 50 207 6.1 10.4 0.00 0.00 0.00 57 1013.1
20260508051605 50 224 5.2 8.7 0.00 0.00 0.00 57 1013.2
20260508050026 51 178 4.3 6.1 0.00 0.00 0.00 58 1013.2
20260508044523 51 191 3.5 7.0 0.00 0.00 0.00 57 1013.2
20260508043021 51 198 3.5 6.1 0.00 0.00 0.00 57 1013.2
20260508041523 51 196 3.5 6.1 0.00 0.00 0.00 56 1013.2
20260508040006 52 188 3.5 6.1 0.00 0.00 0.00 55 1013.2
20260508034508 52 188 3.5 4.3 0.00 0.00 0.00 55 1013.2
20260508033004 52 214 2.6 6.1 0.00 0.00 0.00 55 1013.3
20260508031506 52 217 2.6 5.2 0.00 0.00 0.00 54 1013.3
20260508030113 52 227 1.7 2.6 0.00 0.00 0.00 57 1013.4
20260508024600 52 223 0.9 3.5 0.00 0.00 0.00 55 1013.3
20260508023040 53 198 1.7 4.3 0.00 0.00 0.00 53 1013.0
20260508021541 53 173 1.7 4.3 0.00 0.00 0.00 53 1013.0
20260508020023 53 189 1.7 3.5 0.00 0.00 0.00 53 1013.1
20260508014527 53 159 1.7 3.5 0.00 0.00 0.00 52 1012.9
20260508013034 53 198 1.7 3.5 0.00 0.00 0.00 52 1013.2
20260508011533 53 173 0.9 2.6 0.00 0.00 0.00 52 1013.0
20260508010015 53 189 1.7 2.6 0.00 0.00 0.00 51 1013.1
20260508004534 53 215 0.0 1.7 0.00 0.00 0.00 55 1013.0
20260508003018 53 209 0.9 2.6 0.00 0.00 0.00 53 1013.0